Date String (YYYY-MM-DD hh:mm:ss) UTC,Instrument flags,absolute air pressure of the measurement (hPa),sample flow rate (lpm),inlet stack bypass flow (lpm),air temperature of the measurement (°C),ambient temperature measured by the external sensor (°C),aerosol sample conditioner tube jacket temperature (°C),OPC LED temperature (°C),internal box temperature (°C),relative humidity of the measurement (%),span deviation,mass concentration of particles derived from Lorenz-Mie calculation of OPC scattering (μg/m³),mass concentration of particles derived from Lorenz-Mie calculation of OPC scattering (μg/m³),mass concentration of particles derived from Lorenz-Mie calculation of OPC scattering (μg/m³)
DateTimeUTC,F1_M11,P_M11,Q1_M11,Q2_M11,T1_M11,T2_M11,T3_M11,T4_M11,T5_M11,U1_M11,ZSPAN_M11,X0_M11,X2_M11,X1_M11
2023-11-01 08:00:00,SystemResetWarning,0833.8,4.99,000.00,023.6,022.5,000.0,032.0,025.0,12.9,0002.7,0013.96,0006.47,0005.94
2023-11-01 08:01:00,SystemResetWarning,0833.8,5.00,000.00,023.6,022.5,000.0,032.0,025.0,12.9,0002.4,0014.19,0006.45,0005.92
2023-11-01 08:02:00,SystemResetWarning,0833.7,5.00,000.00,023.6,022.5,000.0,032.0,025.0,12.9,0002.7,0014.19,0006.47,0005.92
2023-11-01 08:03:00,SystemResetWarning,0833.7,5.00,000.00,023.6,022.5,000.0,032.0,025.0,12.9,0003.0,0014.02,0006.48,0005.93
2023-11-01 08:04:00,SystemResetWarning,0833.8,5.00,000.00,023.5,022.5,000.0,032.0,025.0,12.9,0003.3,0013.60,0006.52,0005.97
2023-11-01 08:05:00,SystemResetWarning,0833.8,5.00,000.00,023.5,022.5,000.0,032.0,025.0,13.0,0003.2,0013.67,0006.55,0005.98
2023-11-01 08:06:00,SystemResetWarning,0833.8,5.00,000.00,023.5,022.5,000.0,032.0,025.0,12.9,0003.2,0013.30,0006.58,0006.02
2023-11-01 08:07:00,SystemResetWarning,0833.8,5.00,000.00,023.5,022.5,000.0,032.0,025.0,12.9,0003.4,0013.24,0006.63,0006.06
2023-11-01 08:08:00,SystemResetWarning,0833.8,5.00,000.00,023.5,022.5,000.0,032.0,024.9,12.9,0003.2,0013.27,0006.69,0006.10
2023-11-01 08:09:00,SystemResetWarning,0833.8,5.00,000.00,023.5,022.5,000.0,032.0,024.9,12.9,0003.4,0013.31,0006.73,0006.13
2023-11-01 08:10:00,SystemResetWarning,0833.8,5.00,000.00,023.5,022.5,000.0,032.0,024.9,12.9,0003.7,0012.72,0006.71,0006.14
2023-11-01 08:11:00,SystemResetWarning,0833.8,4.99,000.00,023.5,022.5,000.0,031.9,024.9,12.9,0003.5,0011.51,0006.72,0006.16
2023-11-01 08:12:00,SystemResetWarning,0833.8,5.00,000.00,023.5,022.5,000.0,031.9,024.9,12.9,0003.4,0010.36,0006.69,0006.16
2023-11-01 08:13:00,SystemResetWarning,0833.8,5.00,000.00,023.5,022.5,000.0,031.9,024.9,13.0,0002.7,0010.37,0006.67,0006.16
2023-11-01 08:14:00,SystemResetWarning,0833.8,5.00,000.00,023.5,022.5,000.0,031.9,024.9,13.0,0002.6,0010.27,0006.60,0006.11
2023-11-01 08:15:00,SystemResetWarning,0833.8,5.00,000.00,023.5,022.4,000.0,031.9,024.9,13.0,0001.2,0009.92,0006.51,0006.05
2023-11-01 08:16:00,SystemResetWarning,0833.8,5.00,000.00,023.5,022.4,000.0,031.9,024.8,13.0,-000.2,0010.00,0006.47,0006.01
2023-11-01 08:17:00,SystemResetWarning,0833.8,5.00,000.00,023.5,022.4,000.0,031.9,024.8,13.0,-000.4,0010.89,0006.42,0005.96
2023-11-01 08:18:00,SystemResetWarning,0833.8,5.00,000.00,023.5,022.4,000.0,031.9,024.9,12.9,-000.3,0011.00,0006.37,0005.91
2023-11-01 08:19:00,SystemResetWarning,0833.7,5.00,000.00,023.4,022.4,000.0,031.9,024.9,12.9,-000.5,0010.87,0006.26,0005.85
2023-11-01 08:20:00,SystemResetWarning,0833.7,5.00,000.00,023.4,022.4,000.0,031.9,024.9,12.9,-000.7,0010.88,0006.18,0005.79
2023-11-01 08:21:00,SystemResetWarning,0833.8,5.00,000.00,023.4,022.4,000.0,031.9,024.8,12.9,-000.6,0010.58,0006.15,0005.75
2023-11-01 08:22:00,SystemResetWarning,0833.8,5.00,000.00,023.4,022.3,000.0,031.9,024.8,12.9,0000.8,0010.48,0006.11,0005.73
2023-11-01 08:23:00,SystemResetWarning,0833.8,5.00,000.00,023.4,022.3,000.0,031.9,024.8,12.9,0000.3,0010.44,0006.07,0005.70
2023-11-01 08:24:00,SystemResetWarning,0833.8,5.00,000.00,023.4,022.3,000.0,031.9,024.8,12.9,0001.5,0010.38,0006.03,0005.66
2023-11-01 08:25:00,SystemResetWarning,0833.8,5.00,000.00,023.4,022.3,000.0,031.8,024.8,12.8,0001.7,0010.47,0006.02,0005.63
2023-11-01 08:26:00,SystemResetWarning,0833.8,5.00,000.00,023.4,022.2,000.0,031.8,024.7,12.8,0002.3,0010.58,0006.04,0005.62
2023-11-01 08:27:00,SystemResetWarning,0833.8,5.00,000.00,023.4,022.2,000.0,031.8,024.7,12.8,0003.6,0011.25,0006.02,0005.60
2023-11-01 08:28:00,SystemResetWarning,0833.8,4.99,000.00,023.3,022.2,000.0,031.8,024.6,12.9,0004.0,0010.24,0005.95,0005.57
2023-11-01 08:29:00,SystemResetWarning,0833.7,4.99,000.00,023.3,022.2,000.0,031.8,024.6,12.9,0004.4,0009.65,0005.91,0005.54
2023-11-01 08:30:00,SystemResetWarning,0833.7,5.00,000.00,023.3,022.1,000.0,031.8,024.6,12.9,0004.3,0009.68,0005.91,0005.51
2023-11-01 08:31:00,SystemResetWarning,0833.7,5.00,000.00,023.2,022.1,000.0,031.8,024.6,12.9,0004.2,0009.54,0005.91,0005.50
2023-11-01 08:32:00,SystemResetWarning,0833.7,5.01,000.00,023.2,022.1,000.0,031.8,024.6,12.9,0004.3,0009.54,0005.90,0005.48
2023-11-01 08:33:00,SystemResetWarning,0833.7,5.00,000.00,023.2,022.0,000.0,031.7,024.6,12.9,0003.0,0009.54,0005.87,0005.44
2023-11-01 08:34:00,SystemResetWarning,0833.7,5.01,000.00,023.2,022.0,000.0,031.7,024.6,12.9,0003.4,0009.54,0005.86,0005.42
2023-11-01 08:35:00,SystemResetWarning,0833.7,5.01,000.00,023.2,022.0,000.0,031.7,024.5,12.9,0003.5,0009.49,0005.85,0005.41
2023-11-01 08:36:00,SystemResetWarning,0833.6,4.99,000.00,023.2,022.0,000.0,031.7,024.4,12.9,0001.5,0009.42,0005.84,0005.40
2023-11-01 08:37:00,SystemResetWarning,0833.7,4.99,000.00,023.1,022.0,000.0,031.7,024.5,12.8,0000.5,0009.78,0005.85,0005.39
2023-11-01 08:38:00,SystemResetWarning,0833.7,5.00,000.00,023.1,021.9,000.0,031.7,024.4,12.8,0003.4,0009.11,0005.86,0005.39
2023-11-01 08:39:00,SystemResetWarning,0833.7,5.00,000.00,023.1,021.9,000.0,031.6,024.4,12.8,0002.4,0010.08,0005.86,0005.40
2023-11-01 08:40:00,SystemResetWarning,0833.7,5.00,000.00,023.1,021.8,000.0,031.6,024.4,12.8,0001.3,0010.38,0005.87,0005.41
2023-11-01 08:41:00,SystemResetWarning,0833.7,5.00,000.00,023.0,021.8,000.0,031.6,024.4,12.7,0000.0,0011.16,0005.86,0005.41
2023-11-01 08:42:00,SystemResetWarning,0833.7,5.01,000.00,023.0,021.8,000.0,031.6,024.3,12.7,0000.0,0011.18,0005.84,0005.40
2023-11-01 08:43:00,SystemResetWarning,0833.7,5.00,000.00,023.0,021.8,000.0,031.6,024.3,12.8,0000.0,0011.17,0005.85,0005.41
2023-11-01 08:44:00,SystemResetWarning,0833.6,5.01,000.00,023.0,021.8,000.0,031.5,024.3,12.8,0000.0,0011.15,0005.86,0005.42
2023-11-01 08:45:00,SystemResetWarning,0833.6,5.00,000.00,023.0,021.7,000.0,031.5,024.3,12.8,0000.3,0011.19,0005.87,0005.43
2023-11-01 08:46:00,SystemResetWarning,0833.7,5.00,000.00,023.0,021.7,000.0,031.5,024.3,12.7,0000.0,0011.76,0005.88,0005.43
2023-11-01 08:47:00,SystemResetWarning,0833.7,5.00,000.00,023.0,021.7,000.0,031.5,024.3,12.7,0000.0,0011.96,0005.90,0005.44
2023-11-01 08:48:00,SystemResetWarning,0833.7,5.00,000.00,022.9,021.7,000.0,031.5,024.3,12.8,0000.0,0011.77,0005.92,0005.46
2023-11-01 08:49:00,SystemResetWarning,0833.7,5.00,000.00,022.9,021.7,000.0,031.5,024.3,12.8,0000.0,0012.52,0005.93,0005.46
2023-11-01 08:50:00,SystemResetWarning,0833.7,4.99,000.00,022.9,021.7,000.0,031.5,024.3,12.8,0000.0,0011.91,0005.93,0005.45
2023-11-01 08:51:00,SystemResetWarning,0833.6,5.00,000.00,022.9,021.7,000.0,031.4,024.2,12.8,0000.0,0011.47,0005.91,0005.45
2023-11-01 08:52:00,SystemResetWarning,0833.6,5.00,000.00,022.9,021.7,000.0,031.4,024.2,12.8,-000.0,0010.60,0005.93,0005.46
2023-11-01 08:53:00,SystemResetWarning,0833.6,5.00,000.00,022.9,021.6,000.0,031.4,024.1,12.8,-000.4,0010.53,0005.94,0005.47
2023-11-01 08:54:00,SystemResetWarning,0833.6,5.01,000.00,022.8,021.6,000.0,031.4,024.1,12.8,-000.2,0010.47,0005.92,0005.49
2023-11-01 08:55:00,SystemResetWarning,0833.6,4.99,000.00,022.8,021.6,000.0,031.4,024.1,12.9,-000.3,0010.51,0005.93,0005.49
2023-11-01 08:56:00,SystemResetWarning,0833.6,5.00,000.00,022.8,021.5,000.0,031.4,024.1,12.8,-000.2,0010.63,0005.98,0005.49
2023-11-01 08:57:00,SystemResetWarning,0833.6,5.00,000.00,022.8,021.5,000.0,031.3,024.1,12.7,-000.7,0010.21,0006.01,0005.51
2023-11-01 08:58:00,SystemResetWarning,0833.6,5.00,000.00,022.8,021.5,000.0,031.3,024.1,12.6,-000.6,0010.03,0006.02,0005.52
2023-11-01 08:59:00,SystemResetWarning,0833.5,5.00,000.00,022.8,021.5,000.0,031.3,024.1,12.6,0000.0,0010.15,0006.00,0005.52
